Location: Göttingen
(51.5413°N, 9.9158°E)
Time: 17:37:53
(UTC+02:00)

Tiros 1 despin weight - Pass Details

Date: 29 May 2022
Orbit: 591 x 639 km, 48.2° (Epoch: 04 July)

Event Time Altitude Azimuth Distance (km) Brightness Sun altitude
Rises 21:59:47 0° 272° (W) 2,860 ? -4.9°
Reaches altitude 10° 22:02:08 10° 267° (W) 1,948 ? -5.2°
Maximum altitude 22:06:26 48° 193° (SSW) 785 ? -5.6°
Drops below altitude 10° 22:10:40 10° 119° (ESE) 1,923 ? -6.1°
Enters shadow 22:11:30 - 117° (ESE) 2,242 ? -6.2°
